Tracking 19153 objects as of 26-Apr-2018
HD Live streaming from Space Station
objects crossing your sky now

SL-19 DEB

Track SL-19 DEB now!
10-day predictions


NORAD ID: 36038
Int'l Code: 2009-059C
Perigee: 706.2 km
Apogee: 722.9 km
Inclination: 98.2 °
Period: 98.9 minutes
Semi major axis: 7085 km
RCS: 0.8568 m2 (medium)
Launch date: November 2, 2009
Source: Commonwealth of Independent States (former USSR) (CIS)
Launch site: PLESETSK MISSILE AND SPACE COMPLEX (PKMTR)

Note: This is SATELLITE DEBRIS
aabbcc
Your satellite tracking list
Your tracking list is empty




NASA's NSSDC Master Catalog

Two Line Element Set (TLE):
1 36038U 09059C   18115.62660937 +.00000085 +00000-0 +29845-4 0  9993
2 36038 098.2090 313.0105 0011803 083.4708 320.5938 14.55590926449953
Source of the keplerian elements: AFSPC